Time,TemperatureF,DewpointF,PressureIn,WindDirection,WindDirectionDegrees,WindSpeedMPH,WindSpeedGustMPH,Humidity,HourlyPrecipIn,Conditions,Clouds,dailyrainin,SolarRadiationWatts/m^2,SoftwareType,DateUTC
2013-07-18 00:00:00,70.4,69.8,29.49,North,359,0.0,0.0,98,0.00,,,0.00,0,WeatherCatV1.15B25,2013-07-18 04:00:00,
2013-07-18 00:05:00,70.4,69.5,29.49,North,359,0.0,0.0,97,0.00,,,0.00,0,WeatherCatV1.15B25,2013-07-18 04:05:00,
2013-07-18 00:10:00,70.4,69.5,29.49,North,359,0.0,0.0,97,0.00,,,0.00,0,WeatherCatV1.15B25,2013-07-18 04:10:00,
2013-07-18 00:15:00,70.3,69.4,29.50,North,356,0.0,0.0,97,0.00,,,0.00,0,WeatherCatV1.15B25,2013-07-18 04:15:00,
2013-07-18 00:20:00,70.2,69.3,29.49,North,355,0.0,0.0,97,0.00,,,0.00,0,WeatherCatV1.15B25,2013-07-18 04:20:00,
2013-07-18 00:25:00,70.2,69.6,29.49,North,355,0.0,0.0,98,0.00,,,0.00,0,WeatherCatV1.15B25,2013-07-18 04:25:00,
2013-07-18 00:30:00,70.2,69.6,29.49,North,355,0.0,0.0,98,0.00,,,0.00,0,WeatherCatV1.15B25,2013-07-18 04:30:00,
2013-07-18 00:35:00,70.2,69.6,29.49,North,355,0.0,0.0,98,0.00,,,0.00,0,WeatherCatV1.15B25,2013-07-18 04:35:00,
2013-07-18 00:40:00,70.1,69.5,29.48,North,355,0.0,0.0,98,0.00,,,0.00,0,WeatherCatV1.15B25,2013-07-18 04:40:00,
2013-07-18 00:45:00,70.2,69.6,29.48,North,355,0.0,0.0,98,0.00,,,0.00,0,WeatherCatV1.15B25,2013-07-18 04:45:00,
2013-07-18 00:50:00,70.1,69.5,29.48,North,355,0.0,0.0,98,0.00,,,0.00,0,WeatherCatV1.15B25,2013-07-18 04:50:00,
2013-07-18 00:55:00,70.1,69.5,29.48,North,355,0.0,0.0,98,0.00,,,0.00,0,WeatherCatV1.15B25,2013-07-18 04:55:00,
2013-07-18 01:00:00,70.1,69.5,29.48,North,355,0.0,0.0,98,0.00,,,0.00,0,WeatherCatV1.15B25,2013-07-18 05:00:00,
2013-07-18 01:05:00,70.1,69.5,29.48,North,355,0.0,1.0,98,0.00,,,0.00,0,WeatherCatV1.15B25,2013-07-18 05:05:00,
2013-07-18 01:10:00,70.1,69.5,29.48,North,355,0.0,0.0,98,0.00,,,0.00,0,WeatherCatV1.15B25,2013-07-18 05:10:00,
2013-07-18 01:15:00,70.1,69.5,29.48,North,355,0.0,0.0,98,0.00,,,0.00,0,WeatherCatV1.15B25,2013-07-18 05:15:00,
2013-07-18 01:20:00,70.1,69.5,29.49,North,355,0.0,0.0,98,0.00,,,0.00,0,WeatherCatV1.15B25,2013-07-18 05:20:00,
2013-07-18 01:25:00,70.1,69.5,29.48,North,355,0.0,0.0,98,0.00,,,0.00,0,WeatherCatV1.15B25,2013-07-18 05:25:00,
2013-07-18 01:30:00,70.1,69.5,29.48,North,355,0.0,0.0,98,0.00,,,0.00,0,WeatherCatV1.15B25,2013-07-18 05:30:00,
2013-07-18 01:35:00,70.1,69.5,29.48,North,355,0.0,0.0,98,0.00,,,0.00,0,WeatherCatV1.15B25,2013-07-18 05:35:00,
2013-07-18 01:40:00,70.1,69.5,29.47,North,355,0.0,0.0,98,0.00,,,0.00,0,WeatherCatV1.15B25,2013-07-18 05:40:00,
2013-07-18 01:45:00,70.1,69.8,29.47,North,355,0.0,0.0,99,0.00,,,0.00,0,WeatherCatV1.15B25,2013-07-18 05:45:00,
2013-07-18 01:50:00,70.0,69.7,29.47,North,355,0.0,0.0,99,0.00,,,0.00,0,WeatherCatV1.15B25,2013-07-18 05:50:00,
2013-07-18 01:55:00,70.0,69.7,29.47,North,355,0.0,0.0,99,0.00,,,0.00,0,WeatherCatV1.15B25,2013-07-18 05:55:00,
2013-07-18 02:00:00,69.9,69.6,29.46,North,355,0.0,0.0,99,0.00,,,0.00,0,WeatherCatV1.15B25,2013-07-18 06:00:00,
2013-07-18 02:05:00,69.9,69.3,29.47,North,355,0.0,1.0,98,0.00,,,0.00,0,WeatherCatV1.15B25,2013-07-18 06:05:00,
2013-07-18 02:10:00,69.8,69.2,29.46,North,355,0.0,0.0,98,0.00,,,0.00,0,WeatherCatV1.15B25,2013-07-18 06:10:00,
2013-07-18 02:15:00,69.7,69.1,29.46,North,351,0.0,0.0,98,0.00,,,0.00,0,WeatherCatV1.15B25,2013-07-18 06:15:00,
2013-07-18 02:20:00,69.7,69.1,29.46,North,350,0.0,1.0,98,0.00,,,0.00,0,WeatherCatV1.15B25,2013-07-18 06:20:00,
2013-07-18 02:25:00,69.6,69.0,29.46,North,350,0.0,0.0,98,0.00,,,0.00,0,WeatherCatV1.15B25,2013-07-18 06:25:00,
2013-07-18 02:30:00,69.5,68.9,29.46,North,350,0.0,0.0,98,0.00,,,0.00,0,WeatherCatV1.15B25,2013-07-18 06:30:00,
2013-07-18 02:35:00,69.5,68.9,29.46,North,350,0.0,0.0,98,0.00,,,0.00,0,WeatherCatV1.15B25,2013-07-18 06:35:00,
2013-07-18 02:40:00,69.4,68.8,29.46,North,350,0.0,0.0,98,0.00,,,0.00,0,WeatherCatV1.15B25,2013-07-18 06:40:00,
2013-07-18 02:45:00,69.3,68.7,29.46,North,350,0.0,1.0,98,0.00,,,0.00,0,WeatherCatV1.15B25,2013-07-18 06:45:00,
2013-07-18 02:50:00,69.2,68.6,29.46,North,350,0.0,0.0,98,0.00,,,0.00,0,WeatherCatV1.15B25,2013-07-18 06:50:00,
2013-07-18 02:55:00,69.2,68.6,29.45,North,350,0.0,0.0,98,0.00,,,0.00,0,WeatherCatV1.15B25,2013-07-18 06:55:00,
2013-07-18 03:00:00,69.1,68.5,29.45,North,350,0.0,0.0,98,0.00,,,0.00,0,WeatherCatV1.15B25,2013-07-18 07:00:00,
2013-07-18 03:05:00,69.1,68.5,29.45,North,350,0.0,0.0,98,0.00,,,0.00,0,WeatherCatV1.15B25,2013-07-18 07:05:00,
2013-07-18 03:10:00,69.0,68.4,29.45,North,350,0.0,0.0,98,0.00,,,0.00,0,WeatherCatV1.15B25,2013-07-18 07:10:00,
2013-07-18 03:15:00,69.0,68.4,29.45,North,350,0.0,0.0,98,0.00,,,0.00,0,WeatherCatV1.15B25,2013-07-18 07:15:00,
2013-07-18 03:20:00,68.8,68.2,29.45,North,350,0.0,0.0,98,0.00,,,0.00,0,WeatherCatV1.15B25,2013-07-18 07:20:00,
2013-07-18 03:25:00,68.7,68.1,29.45,North,350,0.0,1.0,98,0.00,,,0.00,0,WeatherCatV1.15B25,2013-07-18 07:25:00,
2013-07-18 03:30:00,68.7,68.1,29.45,North,350,0.0,0.0,98,0.00,,,0.00,0,WeatherCatV1.15B25,2013-07-18 07:30:00,
2013-07-18 03:35:00,68.6,68.0,29.46,North,350,0.0,0.0,98,0.00,,,0.00,0,WeatherCatV1.15B25,2013-07-18 07:35:00,
2013-07-18 03:40:00,68.6,68.0,29.46,North,350,0.0,0.0,98,0.00,,,0.00,0,WeatherCatV1.15B25,2013-07-18 07:40:00,
2013-07-18 03:45:00,68.5,67.9,29.46,North,350,0.0,0.0,98,0.00,,,0.00,0,WeatherCatV1.15B25,2013-07-18 07:45:00,
2013-07-18 03:50:00,68.5,67.9,29.47,North,350,0.0,0.0,98,0.00,,,0.00,0,WeatherCatV1.15B25,2013-07-18 07:50:00,
2013-07-18 03:55:00,68.5,67.9,29.46,North,350,0.0,1.0,98,0.00,,,0.00,0,WeatherCatV1.15B25,2013-07-18 07:55:00,
2013-07-18 04:00:00,68.4,67.8,29.46,North,350,0.0,0.0,98,0.00,,,0.00,0,WeatherCatV1.15B25,2013-07-18 08:00:00,
2013-07-18 04:05:00,68.4,67.8,29.46,NNW,345,0.0,1.0,98,0.00,,,0.00,0,WeatherCatV1.15B25,2013-07-18 08:05:00,
2013-07-18 04:10:00,68.3,67.7,29.46,NNW,343,0.0,0.0,98,0.00,,,0.00,0,WeatherCatV1.15B25,2013-07-18 08:10:00,
2013-07-18 04:15:00,68.3,67.7,29.47,NNW,342,0.0,0.0,98,0.00,,,0.00,0,WeatherCatV1.15B25,2013-07-18 08:15:00,
2013-07-18 04:20:00,68.3,67.7,29.47,NNW,342,0.0,0.0,98,0.00,,,0.00,0,WeatherCatV1.15B25,2013-07-18 08:20:00,
2013-07-18 04:25:00,68.2,67.6,29.47,NNW,331,0.0,1.0,98,0.00,,,0.00,0,WeatherCatV1.15B25,2013-07-18 08:25:00,
2013-07-18 04:30:00,68.1,67.5,29.46,NW,316,0.0,0.0,98,0.00,,,0.00,0,WeatherCatV1.15B25,2013-07-18 08:30:00,
2013-07-18 04:35:00,68.1,67.5,29.47,NW,312,0.0,0.0,98,0.00,,,0.00,0,WeatherCatV1.15B25,2013-07-18 08:35:00,
2013-07-18 04:40:00,68.0,67.4,29.47,NW,311,0.0,1.0,98,0.00,,,0.00,0,WeatherCatV1.15B25,2013-07-18 08:40:00,
2013-07-18 04:45:00,67.9,67.3,29.47,NW,311,0.0,1.0,98,0.00,,,0.00,0,WeatherCatV1.15B25,2013-07-18 08:45:00,
2013-07-18 04:50:00,67.9,67.3,29.47,NW,311,0.0,0.0,98,0.00,,,0.00,0,WeatherCatV1.15B25,2013-07-18 08:50:00,
2013-07-18 04:55:00,67.8,67.2,29.48,NW,311,0.0,0.0,98,0.00,,,0.00,0,WeatherCatV1.15B25,2013-07-18 08:55:00,
2013-07-18 05:00:00,67.7,67.1,29.48,NW,311,0.0,0.0,98,0.00,,,0.00,0,WeatherCatV1.15B25,2013-07-18 09:00:00,
2013-07-18 05:05:00,67.7,67.1,29.48,NW,311,0.0,0.0,98,0.00,,,0.00,0,WeatherCatV1.15B25,2013-07-18 09:05:00,
2013-07-18 05:10:00,67.7,67.1,29.48,NW,311,0.0,0.0,98,0.00,,,0.00,0,WeatherCatV1.15B25,2013-07-18 09:10:00,
2013-07-18 05:15:00,67.7,67.1,29.48,NW,311,0.0,0.0,98,0.00,,,0.00,0,WeatherCatV1.15B25,2013-07-18 09:15:00,
2013-07-18 05:20:00,67.7,67.1,29.49,NW,311,0.0,0.0,98,0.00,,,0.00,0,WeatherCatV1.15B25,2013-07-18 09:20:00,
2013-07-18 05:25:00,67.7,67.1,29.48,NW,311,0.0,0.0,98,0.00,,,0.00,0,WeatherCatV1.15B25,2013-07-18 09:25:00,
2013-07-18 05:30:00,67.7,67.1,29.48,NW,311,0.0,0.0,98,0.00,,,0.00,0,WeatherCatV1.15B25,2013-07-18 09:30:00,
2013-07-18 05:35:00,67.7,67.1,29.49,NW,311,0.0,0.0,98,0.00,,,0.00,0,WeatherCatV1.15B25,2013-07-18 09:35:00,
2013-07-18 05:40:00,67.7,67.4,29.49,NW,311,0.0,0.0,99,0.00,,,0.00,5,WeatherCatV1.15B25,2013-07-18 09:40:00,
2013-07-18 05:45:00,67.7,67.4,29.49,NW,311,0.0,0.0,99,0.00,,,0.00,5,WeatherCatV1.15B25,2013-07-18 09:45:00,
2013-07-18 05:50:00,67.6,67.3,29.49,NW,309,0.0,1.0,99,0.00,,,0.00,11,WeatherCatV1.15B25,2013-07-18 09:50:00,
2013-07-18 05:55:00,67.6,67.3,29.50,WNW,291,0.0,0.0,99,0.00,,,0.00,14,WeatherCatV1.15B25,2013-07-18 09:55:00,
2013-07-18 06:00:00,67.5,67.2,29.50,WNW,286,0.0,0.0,99,0.00,,,0.00,11,WeatherCatV1.15B25,2013-07-18 10:00:00,
2013-07-18 06:05:00,67.5,67.2,29.50,WNW,284,0.0,0.0,99,0.00,,,0.00,14,WeatherCatV1.15B25,2013-07-18 10:05:00,
2013-07-18 06:10:00,67.5,67.2,29.50,WNW,284,0.0,0.0,99,0.00,,,0.00,14,WeatherCatV1.15B25,2013-07-18 10:10:00,
2013-07-18 06:15:00,67.5,67.2,29.50,WNW,284,0.0,0.0,99,0.00,,,0.00,9,WeatherCatV1.15B25,2013-07-18 10:15:00,
2013-07-18 06:20:00,67.5,67.2,29.50,WNW,284,0.0,0.0,99,0.00,,,0.00,12,WeatherCatV1.15B25,2013-07-18 10:20:00,
2013-07-18 06:25:00,67.6,67.3,29.50,WNW,284,0.0,1.0,99,0.00,,,0.00,11,WeatherCatV1.15B25,2013-07-18 10:25:00,
2013-07-18 06:30:00,67.6,67.3,29.50,WNW,284,0.0,0.0,99,0.00,,,0.00,19,WeatherCatV1.15B25,2013-07-18 10:30:00,
2013-07-18 06:35:00,67.6,67.3,29.51,WNW,284,0.0,0.0,99,0.00,,,0.00,18,WeatherCatV1.15B25,2013-07-18 10:35:00,
2013-07-18 06:40:00,67.7,67.4,29.51,WNW,284,0.0,0.0,99,0.00,,,0.00,25,WeatherCatV1.15B25,2013-07-18 10:40:00,
2013-07-18 06:45:00,67.7,67.4,29.51,WNW,284,0.0,0.0,99,0.00,,,0.00,23,WeatherCatV1.15B25,2013-07-18 10:45:00,
2013-07-18 06:50:00,67.8,67.5,29.51,WNW,284,0.0,0.0,99,0.00,,,0.00,14,WeatherCatV1.15B25,2013-07-18 10:50:00,
2013-07-18 06:55:00,67.9,67.6,29.51,WNW,284,0.0,0.0,99,0.00,,,0.00,11,WeatherCatV1.15B25,2013-07-18 10:55:00,
2013-07-18 07:00:00,68.0,67.7,29.51,WNW,284,0.0,0.0,99,0.00,,,0.00,11,WeatherCatV1.15B25,2013-07-18 11:00:00,
2013-07-18 07:05:00,68.2,67.9,29.51,WNW,284,0.0,0.0,99,0.00,,,0.00,9,WeatherCatV1.15B25,2013-07-18 11:05:00,
2013-07-18 07:10:00,68.2,67.9,29.51,WNW,284,0.0,0.0,99,0.00,,,0.00,9,WeatherCatV1.15B25,2013-07-18 11:10:00,
2013-07-18 07:15:00,68.2,67.9,29.52,WNW,284,0.0,0.0,99,0.00,,,0.00,9,WeatherCatV1.15B25,2013-07-18 11:15:00,
2013-07-18 07:20:00,68.3,68.0,29.52,WNW,284,0.0,0.0,99,0.00,,,0.00,37,WeatherCatV1.15B25,2013-07-18 11:20:00,
2013-07-18 07:25:00,68.4,68.1,29.52,WNW,284,0.0,0.0,99,0.00,,,0.00,39,WeatherCatV1.15B25,2013-07-18 11:25:00,
2013-07-18 07:30:00,68.5,68.2,29.51,WNW,284,0.0,0.0,99,0.00,,,0.00,49,WeatherCatV1.15B25,2013-07-18 11:30:00,
2013-07-18 07:35:00,68.7,68.4,29.51,WNW,284,0.0,0.0,99,0.00,,,0.00,14,WeatherCatV1.15B25,2013-07-18 11:35:00,
2013-07-18 07:45:00,68.8,68.5,29.52,WNW,284,0.0,0.0,99,0.00,,,0.00,44,WeatherCatV1.15B25,2013-07-18 11:45:00,
2013-07-18 07:50:00,69.2,68.9,29.52,WNW,284,0.0,0.0,99,0.00,,,0.01,56,WeatherCatV1.15B25,2013-07-18 11:50:00,
2013-07-18 07:55:00,69.4,69.4,29.52,WNW,284,0.0,0.0,100,0.00,,,0.01,47,WeatherCatV1.15B25,2013-07-18 11:55:00,
2013-07-18 08:00:00,69.6,69.6,29.52,WNW,284,0.0,0.0,100,0.00,,,0.01,49,WeatherCatV1.15B25,2013-07-18 12:00:00,
2013-07-18 08:05:00,69.9,69.9,29.52,WNW,284,0.0,0.0,100,0.00,,,0.01,49,WeatherCatV1.15B25,2013-07-18 12:05:00,
2013-07-18 08:10:00,70.1,70.1,29.52,WNW,284,0.0,0.0,100,0.00,,,0.01,51,WeatherCatV1.15B25,2013-07-18 12:10:00,
2013-07-18 08:15:00,70.3,70.3,29.52,WNW,284,0.0,0.0,100,0.00,,,0.01,53,WeatherCatV1.15B25,2013-07-18 12:15:00,
2013-07-18 08:20:00,70.5,70.5,29.52,WNW,284,0.0,0.0,100,0.00,,,0.01,54,WeatherCatV1.15B25,2013-07-18 12:20:00,
2013-07-18 08:25:00,70.8,70.8,29.52,WNW,284,0.0,0.0,100,0.00,,,0.01,54,WeatherCatV1.15B25,2013-07-18 12:25:00,
2013-07-18 08:30:00,71.1,71.1,29.52,WNW,284,0.0,0.0,100,0.00,,,0.01,56,WeatherCatV1.15B25,2013-07-18 12:30:00,
2013-07-18 08:35:00,71.3,71.3,29.52,WNW,284,0.0,0.0,100,0.00,,,0.01,56,WeatherCatV1.15B25,2013-07-18 12:35:00,
2013-07-18 08:40:00,71.7,71.7,29.52,WNW,284,0.0,0.0,100,0.00,,,0.01,58,WeatherCatV1.15B25,2013-07-18 12:40:00,
2013-07-18 08:45:00,71.9,71.9,29.52,WNW,284,0.0,0.0,100,0.00,,,0.01,58,WeatherCatV1.15B25,2013-07-18 12:45:00,
2013-07-18 08:50:00,72.0,72.0,29.52,WNW,284,0.0,0.0,100,0.00,,,0.01,60,WeatherCatV1.15B25,2013-07-18 12:50:00,
2013-07-18 08:55:00,71.9,71.9,29.52,WNW,284,0.0,0.0,100,0.00,,,0.01,60,WeatherCatV1.15B25,2013-07-18 12:55:00,
2013-07-18 09:00:00,71.9,71.9,29.52,WNW,284,0.0,0.0,100,0.00,,,0.01,62,WeatherCatV1.15B25,2013-07-18 13:00:00,
2013-07-18 09:05:00,71.9,71.9,29.52,WNW,284,0.0,0.0,100,0.00,,,0.01,62,WeatherCatV1.15B25,2013-07-18 13:05:00,
2013-07-18 09:10:00,71.9,71.9,29.52,WNW,284,0.0,0.0,100,0.00,,,0.01,62,WeatherCatV1.15B25,2013-07-18 13:10:00,
2013-07-18 09:15:00,71.9,71.9,29.52,WNW,284,0.0,0.0,100,0.00,,,0.01,63,WeatherCatV1.15B25,2013-07-18 13:15:00,
2013-07-18 09:20:00,72.2,72.2,29.52,WNW,284,0.0,0.0,100,0.00,,,0.01,63,WeatherCatV1.15B25,2013-07-18 13:20:00,
2013-07-18 09:25:00,72.5,72.5,29.52,WNW,284,0.0,0.0,100,0.00,,,0.01,63,WeatherCatV1.15B25,2013-07-18 13:25:00,
2013-07-18 09:30:00,72.9,72.9,29.52,WNW,284,0.0,0.0,100,0.00,,,0.01,67,WeatherCatV1.15B25,2013-07-18 13:30:00,
2013-07-18 09:35:00,73.0,73.0,29.52,WNW,284,0.0,0.0,100,0.00,,,0.01,65,WeatherCatV1.15B25,2013-07-18 13:35:00,
2013-07-18 09:40:00,73.0,73.0,29.52,WNW,284,0.0,0.0,100,0.00,,,0.01,104,WeatherCatV1.15B25,2013-07-18 13:40:00,
2013-07-18 09:45:00,73.1,73.1,29.52,WNW,284,0.0,0.0,100,0.00,,,0.01,167,WeatherCatV1.15B25,2013-07-18 13:45:00,
2013-07-18 09:50:00,73.4,73.4,29.52,WNW,284,0.0,0.0,100,0.00,,,0.01,69,WeatherCatV1.15B25,2013-07-18 13:50:00,
2013-07-18 09:55:00,73.8,73.8,29.52,WNW,284,0.0,0.0,100,0.00,,,0.01,74,WeatherCatV1.15B25,2013-07-18 13:55:00,
2013-07-18 10:00:00,73.9,73.9,29.52,WNW,284,0.0,0.0,100,0.00,,,0.01,69,WeatherCatV1.15B25,2013-07-18 14:00:00,
2013-07-18 10:05:00,73.7,73.7,29.52,WNW,284,0.0,0.0,100,0.00,,,0.01,70,WeatherCatV1.15B25,2013-07-18 14:05:00,
2013-07-18 10:10:00,73.7,73.7,29.52,WNW,284,0.0,0.0,100,0.00,,,0.01,464,WeatherCatV1.15B25,2013-07-18 14:10:00,
2013-07-18 10:15:00,74.0,74.0,29.52,WNW,284,0.0,0.0,100,0.00,,,0.01,183,WeatherCatV1.15B25,2013-07-18 14:15:00,
2013-07-18 10:20:00,74.3,74.0,29.52,WNW,284,0.0,0.0,99,0.00,,,0.01,283,WeatherCatV1.15B25,2013-07-18 14:20:00,
2013-07-18 10:25:00,74.6,74.0,29.52,WNW,284,0.0,0.0,98,0.00,,,0.01,199,WeatherCatV1.15B25,2013-07-18 14:25:00,
2013-07-18 10:31:00,75.1,73.9,29.52,WNW,284,0.0,0.0,96,0.00,,,0.01,591,WeatherCatV1.15B25,2013-07-18 14:31:00,
2013-07-18 10:36:00,75.5,73.3,29.52,WNW,284,0.0,0.0,93,0.00,,,0.01,121,WeatherCatV1.15B25,2013-07-18 14:36:00,
2013-07-18 10:41:00,76.1,74.2,29.52,WNW,284,0.0,0.0,94,0.00,,,0.01,114,WeatherCatV1.15B25,2013-07-18 14:41:00,
2013-07-18 10:46:00,76.6,73.8,29.52,WNW,284,0.0,0.0,91,0.00,,,0.01,606,WeatherCatV1.15B25,2013-07-18 14:46:00,
2013-07-18 10:51:00,77.1,74.6,29.52,WNW,284,0.0,0.0,92,0.00,,,0.01,747,WeatherCatV1.15B25,2013-07-18 14:51:00,
2013-07-18 10:56:00,77.6,74.4,29.51,WNW,284,0.0,0.0,90,0.00,,,0.01,380,WeatherCatV1.15B25,2013-07-18 14:56:00,
2013-07-18 11:01:00,78.2,75.0,29.51,WNW,284,0.0,0.0,90,0.00,,,0.01,109,WeatherCatV1.15B25,2013-07-18 15:01:00,
2013-07-18 11:06:00,78.7,75.2,29.51,WNW,284,0.0,0.0,89,0.00,,,0.01,146,WeatherCatV1.15B25,2013-07-18 15:06:00,
2013-07-18 11:11:00,78.9,72.2,29.51,WNW,284,0.0,0.0,80,0.00,,,0.01,348,WeatherCatV1.15B25,2013-07-18 15:11:00,
2013-07-18 11:16:00,79.2,73.2,29.51,WNW,284,0.0,0.0,82,0.00,,,0.01,116,WeatherCatV1.15B25,2013-07-18 15:16:00,
2013-07-18 11:21:00,79.5,73.1,29.51,WNW,284,0.0,0.0,81,0.00,,,0.01,88,WeatherCatV1.15B25,2013-07-18 15:21:00,
2013-07-18 11:26:00,79.8,73.8,29.51,WNW,284,0.0,0.0,82,0.00,,,0.01,93,WeatherCatV1.15B25,2013-07-18 15:26:00,
2013-07-18 11:31:00,80.1,72.2,29.51,WNW,284,0.0,0.0,77,0.00,,,0.01,128,WeatherCatV1.15B25,2013-07-18 15:31:00,
2013-07-18 11:36:00,80.3,73.2,29.51,WNW,284,0.0,0.0,79,0.00,,,0.01,90,WeatherCatV1.15B25,2013-07-18 15:36:00,
2013-07-18 11:41:00,80.5,73.4,29.51,WNW,284,0.0,0.0,79,0.00,,,0.01,114,WeatherCatV1.15B25,2013-07-18 15:41:00,
2013-07-18 11:46:00,80.6,72.7,29.51,WNW,284,0.0,0.0,77,0.00,,,0.01,90,WeatherCatV1.15B25,2013-07-18 15:46:00,
2013-07-18 11:51:00,80.8,72.9,29.51,WNW,284,0.0,0.0,77,0.00,,,0.01,90,WeatherCatV1.15B25,2013-07-18 15:51:00,
2013-07-18 11:56:00,80.9,71.4,29.51,WNW,284,0.0,0.0,73,0.00,,,0.01,91,WeatherCatV1.15B25,2013-07-18 15:56:00,
2013-07-18 12:01:00,81.0,71.9,29.51,WNW,284,0.0,1.0,74,0.00,,,0.01,97,WeatherCatV1.15B25,2013-07-18 16:01:00,
2013-07-18 12:06:00,81.1,71.2,29.51,WNW,284,0.0,0.0,72,0.00,,,0.01,98,WeatherCatV1.15B25,2013-07-18 16:06:00,
2013-07-18 12:11:00,81.1,71.6,29.50,WNW,284,0.0,0.0,73,0.00,,,0.01,86,WeatherCatV1.15B25,2013-07-18 16:11:00,
2013-07-18 12:16:00,81.3,72.6,29.50,WNW,284,0.0,0.0,75,0.00,,,0.01,77,WeatherCatV1.15B25,2013-07-18 16:16:00,
2013-07-18 12:21:00,81.3,72.6,29.49,WNW,284,0.0,0.0,75,0.00,,,0.01,107,WeatherCatV1.15B25,2013-07-18 16:21:00,
2013-07-18 12:26:00,81.4,73.1,29.50,WNW,284,0.0,0.0,76,0.00,,,0.01,109,WeatherCatV1.15B25,2013-07-18 16:26:00,
2013-07-18 12:31:00,81.5,72.4,29.50,WNW,284,0.0,0.0,74,0.00,,,0.01,90,WeatherCatV1.15B25,2013-07-18 16:31:00,
2013-07-18 12:36:00,81.6,72.9,29.49,WNW,284,0.0,0.0,75,0.00,,,0.01,93,WeatherCatV1.15B25,2013-07-18 16:36:00,
2013-07-18 12:41:00,81.8,72.7,29.49,WNW,284,0.0,0.0,74,0.00,,,0.01,120,WeatherCatV1.15B25,2013-07-18 16:41:00,
2013-07-18 12:46:00,82.0,74.4,29.49,WNW,284,0.0,0.0,78,0.00,,,0.01,142,WeatherCatV1.15B25,2013-07-18 16:46:00,
2013-07-18 12:51:00,82.1,73.8,29.49,WNW,284,0.0,0.0,76,0.00,,,0.01,139,WeatherCatV1.15B25,2013-07-18 16:51:00,
2013-07-18 12:56:00,82.2,73.5,29.49,WNW,284,0.0,0.0,75,0.00,,,0.01,63,WeatherCatV1.15B25,2013-07-18 16:56:00,
2013-07-18 13:01:00,82.3,74.0,29.49,WNW,284,0.0,0.0,76,0.00,,,0.01,62,WeatherCatV1.15B25,2013-07-18 17:01:00,
2013-07-18 13:06:00,82.4,74.4,29.49,WNW,284,0.0,0.0,77,0.00,,,0.01,121,WeatherCatV1.15B25,2013-07-18 17:06:00,
2013-07-18 13:11:00,82.5,74.9,29.48,WNW,284,0.0,0.0,78,0.00,,,0.01,56,WeatherCatV1.15B25,2013-07-18 17:11:00,
2013-07-18 13:16:00,82.5,74.1,29.48,WNW,284,0.0,0.0,76,0.00,,,0.01,30,WeatherCatV1.15B25,2013-07-18 17:16:00,
2013-07-18 13:21:00,82.4,73.3,29.48,WNW,284,1.0,1.0,74,0.00,,,0.01,21,WeatherCatV1.15B25,2013-07-18 17:21:00,
2013-07-18 13:26:00,82.2,74.2,29.49,WNW,284,0.0,0.0,77,0.00,,,0.01,32,WeatherCatV1.15B25,2013-07-18 17:26:00,
2013-07-18 13:31:00,82.0,74.8,29.49,WNW,284,0.0,0.0,79,0.00,,,0.01,86,WeatherCatV1.15B25,2013-07-18 17:31:00,
2013-07-18 13:36:00,81.9,74.7,29.49,WNW,284,0.0,0.0,79,0.00,,,0.01,86,WeatherCatV1.15B25,2013-07-18 17:36:00,
2013-07-18 13:41:00,81.7,74.2,29.49,WNW,284,1.0,1.0,78,0.00,,,0.01,149,WeatherCatV1.15B25,2013-07-18 17:41:00,
2013-07-18 13:46:00,81.6,74.1,29.48,WNW,284,0.0,1.0,78,0.00,,,0.01,88,WeatherCatV1.15B25,2013-07-18 17:46:00,
2013-07-18 13:51:00,81.6,74.1,29.48,WNW,284,0.0,0.0,78,0.00,,,0.01,100,WeatherCatV1.15B25,2013-07-18 17:51:00,
2013-07-18 13:56:00,81.6,74.1,29.48,WNW,284,0.0,0.0,78,0.00,,,0.01,56,WeatherCatV1.15B25,2013-07-18 17:56:00,
2013-07-18 14:01:00,81.6,74.1,29.48,WNW,284,0.0,0.0,78,0.00,,,0.01,39,WeatherCatV1.15B25,2013-07-18 18:01:00,
2013-07-18 14:06:00,81.5,74.3,29.48,WNW,284,0.0,0.0,79,0.00,,,0.01,49,WeatherCatV1.15B25,2013-07-18 18:06:00,
2013-07-18 14:11:00,81.5,74.3,29.48,WNW,284,0.0,0.0,79,0.00,,,0.01,33,WeatherCatV1.15B25,2013-07-18 18:11:00,
2013-07-18 14:16:00,81.5,75.8,29.47,WNW,284,0.0,0.0,83,0.00,,,0.01,25,WeatherCatV1.15B25,2013-07-18 18:16:00,
2013-07-18 14:21:00,81.3,75.3,29.49,WNW,284,0.0,1.0,82,0.00,,,0.01,37,WeatherCatV1.15B25,2013-07-18 18:21:00,
2013-07-18 14:26:00,81.1,75.8,29.49,WNW,284,0.0,0.0,84,0.00,,,0.01,343,WeatherCatV1.15B25,2013-07-18 18:26:00,
2013-07-18 14:31:00,80.9,75.9,29.48,WNW,284,0.0,0.0,85,0.00,,,0.01,70,WeatherCatV1.15B25,2013-07-18 18:31:00,
2013-07-18 14:36:00,80.8,75.1,29.48,WNW,284,0.0,0.0,83,0.00,,,0.01,79,WeatherCatV1.15B25,2013-07-18 18:36:00,
2013-07-18 14:41:00,80.7,75.0,29.48,WNW,284,0.0,1.0,83,0.00,,,0.01,327,WeatherCatV1.15B25,2013-07-18 18:41:00,
2013-07-18 14:46:00,80.8,75.1,29.47,WNW,284,0.0,0.0,83,0.00,,,0.01,109,WeatherCatV1.15B25,2013-07-18 18:46:00,
2013-07-18 14:51:00,80.9,74.9,29.48,WNW,284,0.0,0.0,82,0.00,,,0.01,109,WeatherCatV1.15B25,2013-07-18 18:51:00,
2013-07-18 14:56:00,81.1,75.4,29.47,WNW,284,0.0,0.0,83,0.00,,,0.01,134,WeatherCatV1.15B25,2013-07-18 18:56:00,
2013-07-18 15:01:00,81.4,75.4,29.47,WNW,284,0.0,0.0,82,0.00,,,0.01,156,WeatherCatV1.15B25,2013-07-18 19:01:00,
2013-07-18 15:06:00,81.6,74.8,29.47,WNW,284,0.0,0.0,80,0.00,,,0.01,624,WeatherCatV1.15B25,2013-07-18 19:06:00,
2013-07-18 15:11:00,82.0,76.3,29.47,WNW,284,0.0,0.0,83,0.00,,,0.01,163,WeatherCatV1.15B25,2013-07-18 19:11:00,
2013-07-18 15:16:00,82.4,76.7,29.46,WNW,284,0.0,0.0,83,0.00,,,0.01,199,WeatherCatV1.15B25,2013-07-18 19:16:00,
2013-07-18 15:21:00,82.6,76.5,29.46,WNW,284,0.0,0.0,82,0.00,,,0.01,149,WeatherCatV1.15B25,2013-07-18 19:21:00,
2013-07-18 15:26:00,82.9,76.8,29.45,WNW,284,0.0,0.0,82,0.00,,,0.01,95,WeatherCatV1.15B25,2013-07-18 19:26:00,
2013-07-18 15:31:00,83.1,76.6,29.45,WNW,284,0.0,0.0,81,0.00,,,0.01,79,WeatherCatV1.15B25,2013-07-18 19:31:00,
2013-07-18 15:36:00,83.2,76.0,29.45,WNW,284,0.0,0.0,79,0.00,,,0.01,151,WeatherCatV1.15B25,2013-07-18 19:36:00,
2013-07-18 15:41:00,83.3,75.7,29.46,WNW,284,0.0,0.0,78,0.00,,,0.01,125,WeatherCatV1.15B25,2013-07-18 19:41:00,
2013-07-18 15:46:00,83.4,76.2,29.46,WNW,284,0.0,0.0,79,0.00,,,0.01,83,WeatherCatV1.15B25,2013-07-18 19:46:00,
2013-07-18 15:51:00,83.5,76.3,29.46,WNW,284,0.0,0.0,79,0.00,,,0.01,98,WeatherCatV1.15B25,2013-07-18 19:51:00,
2013-07-18 15:56:00,83.6,76.8,29.46,WNW,284,0.0,0.0,80,0.00,,,0.01,67,WeatherCatV1.15B25,2013-07-18 19:56:00,
2013-07-18 16:01:00,83.6,77.1,29.45,WNW,284,0.0,0.0,81,0.00,,,0.01,70,WeatherCatV1.15B25,2013-07-18 20:01:00,
2013-07-18 16:06:00,83.5,75.9,29.45,WNW,284,0.0,0.0,78,0.00,,,0.01,58,WeatherCatV1.15B25,2013-07-18 20:06:00,
2013-07-18 16:11:00,83.5,76.7,29.45,WNW,284,0.0,0.0,80,0.00,,,0.01,74,WeatherCatV1.15B25,2013-07-18 20:11:00,
2013-07-18 16:16:00,83.4,76.2,29.45,WNW,284,1.0,1.0,79,0.00,,,0.01,63,WeatherCatV1.15B25,2013-07-18 20:16:00,
2013-07-18 16:21:00,83.3,76.8,29.45,WNW,284,0.0,1.0,81,0.00,,,0.01,90,WeatherCatV1.15B25,2013-07-18 20:21:00,
2013-07-18 16:26:00,83.2,76.0,29.46,WNW,284,0.0,1.0,79,0.00,,,0.01,54,WeatherCatV1.15B25,2013-07-18 20:26:00,
2013-07-18 16:31:00,83.0,76.2,29.45,WNW,284,0.0,0.0,80,0.00,,,0.01,51,WeatherCatV1.15B25,2013-07-18 20:31:00,
2013-07-18 16:36:00,82.9,76.4,29.45,WNW,284,0.0,0.0,81,0.00,,,0.01,81,WeatherCatV1.15B25,2013-07-18 20:36:00,
2013-07-18 16:41:00,82.8,76.4,29.45,WNW,284,0.0,0.0,81,0.00,,,0.01,86,WeatherCatV1.15B25,2013-07-18 20:41:00,
2013-07-18 16:46:00,82.7,75.9,29.45,WNW,284,0.0,0.0,80,0.00,,,0.01,113,WeatherCatV1.15B25,2013-07-18 20:46:00,
2013-07-18 16:51:00,82.6,75.8,29.45,WNW,284,0.0,0.0,80,0.00,,,0.01,97,WeatherCatV1.15B25,2013-07-18 20:51:00,
2013-07-18 16:56:00,82.5,76.1,29.44,WNW,284,0.0,0.0,81,0.00,,,0.01,308,WeatherCatV1.15B25,2013-07-18 20:56:00,
2013-07-18 17:01:00,82.4,76.0,29.45,WNW,284,0.0,1.0,81,0.00,,,0.01,53,WeatherCatV1.15B25,2013-07-18 21:01:00,
2013-07-18 17:06:00,82.3,75.9,29.45,WNW,284,0.0,0.0,81,0.00,,,0.01,56,WeatherCatV1.15B25,2013-07-18 21:06:00,
2013-07-18 17:11:00,82.3,76.2,29.46,WNW,284,0.0,0.0,82,0.00,,,0.01,44,WeatherCatV1.15B25,2013-07-18 21:11:00,
2013-07-18 17:16:00,82.2,76.1,29.47,WNW,284,0.0,0.0,82,0.00,,,0.01,44,WeatherCatV1.15B25,2013-07-18 21:16:00,
2013-07-18 17:21:00,82.1,76.4,29.46,WNW,284,0.0,0.0,83,0.00,,,0.01,53,WeatherCatV1.15B25,2013-07-18 21:21:00,
2013-07-18 17:26:00,81.9,76.2,29.46,WNW,284,0.0,0.0,83,0.00,,,0.01,46,WeatherCatV1.15B25,2013-07-18 21:26:00,
2013-07-18 17:31:00,81.7,76.0,29.46,WNW,284,0.0,0.0,83,0.00,,,0.01,62,WeatherCatV1.15B25,2013-07-18 21:31:00,
2013-07-18 17:36:00,81.5,75.8,29.46,WNW,284,0.0,0.0,83,0.00,,,0.01,51,WeatherCatV1.15B25,2013-07-18 21:36:00,
2013-07-18 17:41:00,81.4,76.1,29.46,WNW,284,0.0,0.0,84,0.00,,,0.01,58,WeatherCatV1.15B25,2013-07-18 21:41:00,
2013-07-18 17:46:00,81.2,75.5,29.46,WNW,284,0.0,0.0,83,0.00,,,0.01,88,WeatherCatV1.15B25,2013-07-18 21:46:00,
2013-07-18 17:51:00,81.1,75.4,29.46,WNW,284,0.0,0.0,83,0.00,,,0.01,70,WeatherCatV1.15B25,2013-07-18 21:51:00,
2013-07-18 17:56:00,80.9,75.2,29.46,WNW,284,0.0,0.0,83,0.00,,,0.01,49,WeatherCatV1.15B25,2013-07-18 21:56:00,
2013-07-18 18:01:00,80.8,74.8,29.46,WNW,284,0.0,0.0,82,0.00,,,0.01,54,WeatherCatV1.15B25,2013-07-18 22:01:00,
2013-07-18 18:06:00,80.7,74.7,29.46,WNW,284,0.0,1.0,82,0.00,,,0.01,26,WeatherCatV1.15B25,2013-07-18 22:06:00,
2013-07-18 18:11:00,80.6,74.9,29.46,WNW,284,0.0,0.0,83,0.00,,,0.01,21,WeatherCatV1.15B25,2013-07-18 22:11:00,
2013-07-18 18:16:00,80.5,74.8,29.46,WNW,284,0.0,0.0,83,0.00,,,0.01,19,WeatherCatV1.15B25,2013-07-18 22:16:00,
2013-07-18 18:21:00,80.3,74.6,29.46,WNW,284,0.0,1.0,83,0.00,,,0.01,18,WeatherCatV1.15B25,2013-07-18 22:21:00,
2013-07-18 18:26:00,80.2,74.6,29.46,WNW,284,0.0,1.0,83,0.00,,,0.01,18,WeatherCatV1.15B25,2013-07-18 22:26:00,
2013-07-18 18:31:00,80.0,74.4,29.45,WNW,284,0.0,0.0,83,0.00,,,0.01,18,WeatherCatV1.15B25,2013-07-18 22:31:00,
2013-07-18 18:36:00,79.8,74.5,29.45,WNW,284,0.0,1.0,84,0.00,,,0.01,19,WeatherCatV1.15B25,2013-07-18 22:36:00,
2013-07-18 18:41:00,79.6,74.0,29.45,WNW,284,0.0,1.0,83,0.00,,,0.01,16,WeatherCatV1.15B25,2013-07-18 22:41:00,
2013-07-18 18:46:00,79.4,74.5,29.46,WNW,284,0.0,1.0,85,0.00,,,0.01,18,WeatherCatV1.15B25,2013-07-18 22:46:00,
2013-07-18 18:51:00,79.2,74.3,29.46,WNW,284,0.0,0.0,85,0.00,,,0.01,12,WeatherCatV1.15B25,2013-07-18 22:51:00,
2013-07-18 18:56:00,79.0,74.8,29.46,WNW,284,0.0,0.0,87,0.00,,,0.01,7,WeatherCatV1.15B25,2013-07-18 22:56:00,
2013-07-18 19:01:00,78.7,74.1,29.46,WNW,284,0.0,0.0,86,0.18,,,0.03,14,WeatherCatV1.15B25,2013-07-18 23:01:00,
2013-07-18 19:05:00,78.4,74.5,29.46,WNW,284,0.0,0.0,88,0.20,,,0.04,12,WeatherCatV1.15B25,2013-07-18 23:05:00,
2013-07-18 19:10:00,77.9,74.0,29.46,WNW,284,0.0,0.0,88,0.08,,,0.04,12,WeatherCatV1.15B25,2013-07-18 23:10:00,
2013-07-18 19:15:00,77.6,74.1,29.46,WNW,284,0.0,0.0,89,0.05,,,0.04,14,WeatherCatV1.15B25,2013-07-18 23:15:00,
2013-07-18 19:20:00,77.3,74.1,29.46,WNW,284,0.0,0.0,90,0.04,,,0.05,12,WeatherCatV1.15B25,2013-07-18 23:20:00,
2013-07-18 19:25:00,77.0,73.8,29.46,WNW,284,0.0,0.0,90,0.04,,,0.05,7,WeatherCatV1.15B25,2013-07-18 23:25:00,
2013-07-18 19:30:00,76.8,73.6,29.47,WNW,284,0.0,0.0,90,0.04,,,0.05,5,WeatherCatV1.15B25,2013-07-18 23:30:00,
2013-07-18 19:35:00,76.5,73.7,29.47,WNW,284,0.0,0.0,91,0.00,,,0.05,5,WeatherCatV1.15B25,2013-07-18 23:35:00,
2013-07-18 19:40:00,76.3,73.8,29.47,WNW,284,0.0,0.0,92,0.00,,,0.05,5,WeatherCatV1.15B25,2013-07-18 23:40:00,
2013-07-18 19:45:00,76.0,73.5,29.47,WNW,284,0.0,0.0,92,0.00,,,0.05,0,WeatherCatV1.15B25,2013-07-18 23:45:00,
2013-07-18 19:50:00,75.8,73.3,29.46,WNW,284,0.0,0.0,92,0.00,,,0.05,0,WeatherCatV1.15B25,2013-07-18 23:50:00,
2013-07-18 19:55:00,75.6,73.4,29.46,WNW,284,0.0,0.0,93,0.00,,,0.05,0,WeatherCatV1.15B25,2013-07-18 23:55:00,
2013-07-18 20:00:00,75.4,73.2,29.46,WNW,284,0.0,0.0,93,0.00,,,0.05,0,WeatherCatV1.15B25,2013-07-19 00:00:00,
2013-07-18 20:05:00,75.2,73.0,29.46,WNW,284,0.0,0.0,93,0.00,,,0.05,0,WeatherCatV1.15B25,2013-07-19 00:05:00,
2013-07-18 20:10:00,75.0,72.8,29.46,WNW,284,0.0,0.0,93,0.00,,,0.05,0,WeatherCatV1.15B25,2013-07-19 00:10:00,
2013-07-18 20:15:00,74.8,72.6,29.47,WNW,284,0.0,0.0,93,0.00,,,0.05,0,WeatherCatV1.15B25,2013-07-19 00:15:00,
2013-07-18 20:20:00,74.6,72.4,29.47,WNW,284,0.0,0.0,93,0.00,,,0.05,0,WeatherCatV1.15B25,2013-07-19 00:20:00,
2013-07-18 20:25:00,74.4,72.6,29.47,WNW,284,0.0,0.0,94,0.00,,,0.05,0,WeatherCatV1.15B25,2013-07-19 00:25:00,
2013-07-18 20:30:00,74.3,72.5,29.47,WNW,284,0.0,0.0,94,0.00,,,0.05,0,WeatherCatV1.15B25,2013-07-19 00:30:00,
2013-07-18 20:35:00,74.2,72.4,29.47,WNW,284,0.0,0.0,94,0.00,,,0.05,0,WeatherCatV1.15B25,2013-07-19 00:35:00,
2013-07-18 20:40:00,74.0,72.5,29.47,WNW,284,0.0,0.0,95,0.00,,,0.05,0,WeatherCatV1.15B25,2013-07-19 00:40:00,
2013-07-18 20:45:00,73.9,72.4,29.47,WNW,284,0.0,0.0,95,0.00,,,0.05,0,WeatherCatV1.15B25,2013-07-19 00:45:00,
2013-07-18 20:50:00,73.8,72.3,29.47,WNW,284,0.0,0.0,95,0.00,,,0.05,0,WeatherCatV1.15B25,2013-07-19 00:50:00,
2013-07-18 20:55:00,73.7,72.2,29.47,WNW,284,0.0,0.0,95,0.00,,,0.05,0,WeatherCatV1.15B25,2013-07-19 00:55:00,
2013-07-18 21:00:00,73.7,72.5,29.47,WNW,298,0.0,1.0,96,0.00,,,0.05,0,WeatherCatV1.15B25,2013-07-19 01:00:00,
2013-07-18 21:05:00,73.6,72.4,29.47,WNW,298,0.0,0.0,96,0.00,,,0.05,0,WeatherCatV1.15B25,2013-07-19 01:05:00,
2013-07-18 21:10:00,73.6,72.4,29.48,WNW,298,0.0,0.0,96,0.00,,,0.05,0,WeatherCatV1.15B25,2013-07-19 01:10:00,
2013-07-18 21:15:00,73.5,72.3,29.47,WNW,298,0.0,0.0,96,0.00,,,0.05,0,WeatherCatV1.15B25,2013-07-19 01:15:00,
2013-07-18 21:20:00,73.5,72.3,29.48,WNW,298,0.0,0.0,96,0.00,,,0.05,0,WeatherCatV1.15B25,2013-07-19 01:20:00,
2013-07-18 21:25:00,73.4,72.2,29.48,WNW,298,0.0,0.0,96,0.00,,,0.05,0,WeatherCatV1.15B25,2013-07-19 01:25:00,
2013-07-18 21:30:00,73.3,72.4,29.48,WNW,298,0.0,0.0,97,0.00,,,0.05,0,WeatherCatV1.15B25,2013-07-19 01:30:00,
2013-07-18 21:35:00,73.3,72.4,29.48,WNW,298,0.0,0.0,97,0.00,,,0.05,0,WeatherCatV1.15B25,2013-07-19 01:35:00,
2013-07-18 21:40:00,73.2,72.3,29.48,WNW,298,0.0,0.0,97,0.00,,,0.05,0,WeatherCatV1.15B25,2013-07-19 01:40:00,
2013-07-18 21:45:00,73.2,72.3,29.48,WNW,298,0.0,0.0,97,0.00,,,0.05,0,WeatherCatV1.15B25,2013-07-19 01:45:00,
2013-07-18 21:50:00,73.2,72.3,29.48,WNW,298,0.0,0.0,97,0.00,,,0.05,0,WeatherCatV1.15B25,2013-07-19 01:50:00,
2013-07-18 21:55:00,73.1,72.2,29.48,WNW,298,0.0,0.0,97,0.00,,,0.05,0,WeatherCatV1.15B25,2013-07-19 01:55:00,
2013-07-18 22:00:00,73.0,72.1,29.48,WNW,298,0.0,1.0,97,0.00,,,0.05,0,WeatherCatV1.15B25,2013-07-19 02:00:00,
2013-07-18 22:05:00,73.0,72.1,29.48,WNW,298,0.0,0.0,97,0.00,,,0.05,0,WeatherCatV1.15B25,2013-07-19 02:05:00,
2013-07-18 22:10:00,73.0,72.1,29.48,WNW,298,0.0,0.0,97,0.00,,,0.05,0,WeatherCatV1.15B25,2013-07-19 02:10:00,
2013-07-18 22:15:00,72.9,72.0,29.48,WNW,298,0.0,0.0,97,0.00,,,0.06,0,WeatherCatV1.15B25,2013-07-19 02:15:00,
2013-07-18 22:20:00,72.9,72.0,29.48,WNW,298,0.0,0.0,97,0.00,,,0.06,0,WeatherCatV1.15B25,2013-07-19 02:20:00,
2013-07-18 22:25:00,72.8,71.9,29.49,WNW,298,0.0,0.0,97,0.00,,,0.06,0,WeatherCatV1.15B25,2013-07-19 02:25:00,
2013-07-18 22:30:00,72.8,71.9,29.49,WNW,298,0.0,0.0,97,0.00,,,0.06,0,WeatherCatV1.15B25,2013-07-19 02:30:00,
2013-07-18 22:35:00,72.7,71.8,29.49,WNW,298,0.0,0.0,97,0.00,,,0.06,0,WeatherCatV1.15B25,2013-07-19 02:35:00,
2013-07-18 22:40:00,72.7,71.8,29.49,WNW,298,0.0,0.0,97,0.00,,,0.06,0,WeatherCatV1.15B25,2013-07-19 02:40:00,
2013-07-18 22:45:00,72.6,71.7,29.48,WNW,298,0.0,0.0,97,0.00,,,0.06,0,WeatherCatV1.15B25,2013-07-19 02:45:00,
2013-07-18 22:50:00,72.6,71.7,29.48,WNW,298,0.0,0.0,97,0.00,,,0.07,0,WeatherCatV1.15B25,2013-07-19 02:50:00,
2013-07-18 22:55:00,72.6,71.7,29.48,WNW,298,0.0,0.0,97,0.08,,,0.07,0,WeatherCatV1.15B25,2013-07-19 02:55:00,
2013-07-18 23:00:00,72.6,72.0,29.48,WNW,298,0.0,0.0,98,0.08,,,0.08,0,WeatherCatV1.15B25,2013-07-19 03:00:00,
2013-07-18 23:05:00,72.5,71.9,29.48,WNW,298,0.0,0.0,98,0.07,,,0.09,0,WeatherCatV1.15B25,2013-07-19 03:05:00,
2013-07-18 23:10:00,72.5,71.9,29.47,WNW,298,0.0,0.0,98,0.07,,,0.09,0,WeatherCatV1.15B25,2013-07-19 03:10:00,
2013-07-18 23:15:00,72.5,71.9,29.47,WNW,298,0.0,0.0,98,0.05,,,0.09,0,WeatherCatV1.15B25,2013-07-19 03:15:00,
2013-07-18 23:20:00,72.5,71.9,29.47,WNW,297,0.0,0.0,98,0.04,,,0.09,0,WeatherCatV1.15B25,2013-07-19 03:20:00,
2013-07-18 23:25:00,72.6,72.0,29.47,WNW,298,0.0,0.0,98,0.00,,,0.09,0,WeatherCatV1.15B25,2013-07-19 03:25:00,
2013-07-18 23:30:00,72.5,71.9,29.48,WNW,298,0.0,0.0,98,0.00,,,0.09,0,WeatherCatV1.15B25,2013-07-19 03:30:00,
2013-07-18 23:35:00,72.5,71.9,29.48,WNW,298,0.0,0.0,98,0.00,,,0.09,0,WeatherCatV1.15B25,2013-07-19 03:35:00,
2013-07-18 23:40:00,72.5,71.9,29.48,WNW,298,0.0,0.0,98,0.00,,,0.09,0,WeatherCatV1.15B25,2013-07-19 03:40:00,
2013-07-18 23:45:00,72.5,71.9,29.47,WNW,297,0.0,0.0,98,0.00,,,0.09,0,WeatherCatV1.15B25,2013-07-19 03:45:00,
2013-07-18 23:50:00,72.4,71.8,29.47,WNW,298,0.0,0.0,98,0.00,,,0.10,0,WeatherCatV1.15B25,2013-07-19 03:50:00,
2013-07-18 23:53:00,72.4,71.8,29.46,WNW,297,0.0,0.0,98,0.00,,,0.10,0,WeatherCatV1.15B25,2013-07-19 03:53:00,
2013-07-18 23:58:00,72.4,71.8,29.46,WNW,297,0.0,0.0,98,0.00,,,0.10,0,WeatherCatV1.15B25,2013-07-19 03:58:00,